This is the latest recevied weather packets stored in our database for station/object KM4NDN. If no packets are shown the sender has not sent any weather packets the latest 10 day(s).
| Time | Temp. | Humidity | Pressure | Rain* | Wind** | Luminosity | Snow |
|---|---|---|---|---|---|---|---|
| 1777933035 | 23.89° C | 44% | 1000.3 hPa | 0 mm | - | 218 W/m² | - |
| 1777932732 | 23.89° C | 45% | 1000.5 hPa | 0 mm | - | 251 W/m² | - |
| 1777932428 | 23.89° C | 44% | 1000.4 hPa | 0 mm | - | 280 W/m² | - |
| 1777932126 | 23.89° C | 44% | 1000.5 hPa | 0 mm | - | 250 W/m² | - |
| 1777931822 | 23.89° C | 43% | 1000.3 hPa | 0 mm | - | 301 W/m² | - |
| 1777931520 | 23.89° C | 43% | 1000.4 hPa | 0 mm | - | 310 W/m² | - |
| 1777931215 | 23.89° C | 43% | 1000.6 hPa | 0 mm | - | 314 W/m² | - |
| 1777930912 | 23.89° C | 42% | 1000.5 hPa | 0 mm | - | 334 W/m² | - |
| 1777930608 | 23.89° C | 43% | 1000.5 hPa | 0 mm | - | 343 W/m² | - |
| 1777930305 | 23.89° C | 44% | 1000.4 hPa | 0 mm | - | 370 W/m² | - |
| 1777930002 | 23.33° C | 47% | 1000.5 hPa | 0 mm | - | 420 W/m² | - |
| 1777929698 | 23.33° C | 45% | 1000.6 hPa | 0 mm | - | 222 W/m² | - |
| 1777929396 | 23.89° C | 45% | 1000.6 hPa | 0 mm | - | 124 W/m² | - |
| 1777929092 | 24.44° C | 44% | 1000.7 hPa | 0 mm | - | 211 W/m² | - |
| 1777928790 | 24.44° C | 44% | 1000.6 hPa | 0 mm | - | 231 W/m² | - |
| 1777928486 | 23.89° C | 43% | 1000.7 hPa | 0 mm | - | 554 W/m² | - |
| 1777928184 | 23.33° C | 46% | 1000.7 hPa | 0 mm | - | 466 W/m² | - |
| 1777927881 | 23.33° C | 45% | 1000.7 hPa | 0 mm | - | 200 W/m² | - |
| 1777927580 | 23.33° C | 46% | 1001 hPa | 0 mm | - | 271 W/m² | - |
| 1777927278 | 23.33° C | 49% | 1000.8 hPa | 0 mm | - | 206 W/m² | - |
| 1777926977 | 23.33° C | 48% | 1001 hPa | 0 mm | - | 188 W/m² | - |
| 1777926674 | 22.78° C | 48% | 1001 hPa | 0 mm | - | 266 W/m² | - |
| 1777926368 | 22.78° C | 48% | 1001.4 hPa | 0 mm | - | 222 W/m² | - |
| 1777926066 | 22.78° C | 48% | 1001.5 hPa | 0 mm | - | 213 W/m² | - |
| 1777925762 | 23.33° C | 46% | 1001.3 hPa | 0 mm | - | 365 W/m² | - |
* Rain latest hour (hover to see other rain measurements)
** Current wind speed in m/s (hover to see current wind gust speed)